GEFSSGP_con_probscp_186.txt.gz
Probability
0 0 0 0 0 0 0 0 0 0 0 0 0 0 0 1 2 3 2 2 4 12 18 18 16 15 14 13 14 12 10 9 10 10 7 4 3 3 3 2 1 0 0 0 0 0 0 0 0
0 0 0 0 0 0 0 0 0 0 0 0 1 2 3 3 3 3 2 4 9 16 20 18 16 15 14 14 15 15 13 13 13 11 7 4 3 3 3 2 1 0 0 0 0 0 0 0 0
0 0 0 0 0 0 0 1 0 0 0 0 2 6 8 6 4 3 4 9 15 20 22 20 17 15 14 15 16 16 16 16 16 13 7 4 3 3 3 2 1 0 0 0 0 0 0 0 1
0 0 0 0 0 0 0 0 0 0 0 0 3 7 9 8 5 4 8 13 17 20 22 22 19 16 15 17 17 17 16 16 16 12 7 4 3 3 3 2 1 0 0 0 0 0 0 0 1
0 0 0 0 0 0 0 0 0 0 0 0 2 5 8 9 7 6 9 15 18 20 22 23 21 17 15 17 18 18 18 17 16 13 9 5 4 4 4 3 2 1 0 0 0 0 0 0 1
0 0 0 0 0 0 0 0 0 0 0 0 1 4 7 9 9 9 12 16 19 19 21 23 21 17 15 16 19 22 22 21 18 14 10 7 6 5 5 5 4 2 0 0 0 1 1 0 1
0 0 0 0 0 0 0 0 0 1 1 1 2 3 7 12 15 16 17 17 17 16 18 20 20 17 16 17 20 23 24 22 18 13 11 9 8 6 6 5 4 1 0 0 1 1 1 1 1
0 0 0 0 0 0 1 1 1 2 3 5 5 5 11 20 25 26 25 21 17 16 18 20 19 18 15 15 18 21 22 21 17 13 11 10 9 7 6 5 3 2 1 1 1 2 1 1 1
0 0 0 0 0 1 2 2 3 5 6 7 8 10 17 28 33 32 30 26 22 21 22 23 22 19 15 14 16 19 20 19 16 13 12 11 9 7 6 7 6 4 2 2 2 3 2 1 1
0 0 0 0 1 2 3 4 5 7 7 6 8 13 21 31 34 30 27 26 27 26 26 26 26 24 20 18 20 21 21 20 17 15 14 13 12 9 8 10 10 7 4 4 6 6 5 4 4
0 0 0 0 2 3 5 5 6 8 8 6 6 11 21 29 31 27 23 24 26 27 28 28 29 29 28 26 25 25 25 24 22 20 19 18 16 14 12 13 13 11 8 8 9 9 7 7 7
0 0 0 0 2 4 5 6 6 7 8 7 7 11 20 28 31 27 24 24 25 26 28 28 30 33 35 33 30 27 27 28 26 24 24 23 20 17 16 16 15 13 11 10 10 10 9 8 8
0 1 1 1 3 4 4 5 6 6 7 8 8 11 19 27 30 29 28 27 25 25 26 27 30 36 40 39 34 29 29 29 27 26 25 24 22 19 19 19 17 15 13 12 10 9 9 8 7
1 2 2 3 4 4 4 5 6 5 6 8 10 13 17 21 26 30 33 31 26 24 24 27 31 37 42 42 38 34 32 31 29 27 26 24 22 21 21 20 18 15 14 13 10 9 8 8 8
1 2 3 4 4 3 3 5 6 5 7 10 12 15 16 16 20 28 34 33 28 25 27 30 33 39 44 45 42 36 32 31 30 30 29 26 24 24 23 20 18 15 13 13 10 9 7 7 6
0 1 2 3 3 2 2 3 4 5 7 9 12 15 17 16 18 25 30 31 29 28 31 34 36 41 44 44 41 34 29 29 28 26 26 25 24 24 22 19 16 13 12 10 9 8 7 6 5
0 0 1 3 3 1 2 3 3 4 5 6 9 14 18 19 21 26 28 27 26 27 31 35 37 40 42 41 37 32 30 28 23 20 19 20 21 20 17 15 13 11 9 8 8 8 7 6 5
0 0 1 2 3 2 2 3 2 3 4 4 6 12 17 20 22 26 26 25 26 27 30 33 37 40 40 37 33 32 30 26 20 16 17 19 19 17 14 12 11 10 8 8 8 8 7 6 6
0 0 1 2 2 2 2 2 3 3 4 4 5 11 16 19 21 23 25 26 28 29 29 32 37 40 38 35 33 33 29 24 19 17 19 20 19 16 13 11 10 9 9 8 8 8 6 5 5
0 0 0 1 1 1 1 2 3 4 4 3 5 11 16 19 21 21 21 24 28 30 30 31 36 38 37 35 35 32 28 23 20 20 21 20 18 15 13 10 8 7 7 7 6 6 5 4 3
0 0 0 0 0 0 1 2 3 3 4 4 5 9 15 18 19 18 17 19 25 29 30 30 34 36 35 34 32 29 26 22 21 20 20 19 16 14 11 8 5 3 4 6 5 4 4 2 1
0 0 0 0 0 0 0 1 1 2 3 3 2 5 11 14 15 14 14 16 20 24 26 28 33 35 34 31 29 27 25 22 21 19 17 16 15 13 9 6 4 3 4 4 4 3 3 2 1
0 0 0 0 0 0 0 0 0 1 1 1 1 2 7 12 13 12 13 14 15 18 22 27 31 33 32 31 30 30 27 23 20 18 16 15 14 11 7 5 5 5 3 2 3 3 3 2 2
0 0 0 0 0 0 0 0 0 0 0 1 1 3 7 11 12 11 10 10 12 16 21 27 29 29 30 31 31 31 28 23 19 17 16 14 11 8 6 5 5 4 2 2 2 3 2 1 1
0 0 0 0 0 0 0 0 0 1 1 2 2 4 7 10 11 10 9 9 12 16 20 24 24 24 25 26 27 27 25 21 18 15 14 12 9 6 5 5 4 3 2 2 2 1 1 0 0
0 0 0 0 0 0 0 0 1 1 2 3 4 5 7 10 10 10 10 10 12 16 18 17 15 16 17 18 19 21 22 20 17 14 12 10 7 5 5 4 3 2 1 1 1 0 0 0 0
0 0 0 0 0 0 0 0 1 2 2 4 6 6 7 8 9 11 12 12 13 16 16 13 11 12 12 12 14 17 17 16 14 12 10 8 6 4 3 2 1 1 1 1 1 0 0 0 1
0 0 0 0 0 0 0 0 1 1 2 3 5 5 5 5 7 11 14 14 15 18 17 15 13 12 11 11 12 13 13 11 10 9 8 7 6 4 1 0 0 0 0 1 1 0 0 1 2
0 0 0 0 0 0 0 0 0 0 1 4 5 4 3 4 5 9 11 14 16 19 19 16 14 12 11 11 12 11 10 8 8 7 7 5 4 2 1 0 1 1 1 0 0 0 0 1 2
0 0 0 0 0 0 0 0 0 0 1 4 5 3 3 4 5 7 9 12 16 18 18 15 11 10 11 12 12 11 9 7 7 6 6 4 3 1 0 1 2 2 2 1 0 0 0 1 2

GEFSSGP_con_probscp_192.txt.gz
Probability
0 0 0 0 0 0 0 0 0 0 0 1 1 4 9 11 11 9 8 20 37 38 31 34 36 30 24 17 10 7 6 6 4 4 3 1 0 0 1 2 2 1 0 0 0 0 0 1 1
0 0 0 0 0 0 0 0 0 1 1 2 3 6 10 12 12 11 14 26 40 39 31 32 35 31 26 21 14 10 8 7 6 5 3 1 1 1 2 2 1 0 0 0 0 0 0 0 1
0 0 0 0 0 0 0 0 1 2 1 3 6 9 12 12 13 15 20 31 40 36 31 31 33 32 29 25 19 14 10 8 7 5 4 3 3 3 3 3 1 1 0 0 0 0 0 0 1
0 0 0 0 0 0 0 1 1 1 1 3 8 11 12 14 15 18 22 29 34 32 31 34 35 35 31 25 21 18 15 11 10 9 7 7 6 5 4 3 3 2 1 1 0 0 0 1 2
0 0 0 0 0 0 0 0 0 0 1 4 8 11 13 17 20 20 21 24 28 29 33 38 41 39 34 26 21 21 21 20 18 17 14 11 10 9 6 4 3 3 3 2 1 0 0 1 2
0 0 0 0 0 0 0 0 1 1 2 5 10 12 14 18 21 19 17 18 23 29 35 41 43 42 37 31 26 24 24 24 24 23 19 15 12 10 7 4 4 4 4 3 1 0 0 0 1
0 0 0 1 1 1 0 1 2 3 4 6 10 13 17 20 20 18 16 16 22 31 38 41 41 40 38 35 31 28 26 25 25 23 20 16 13 10 8 6 5 5 5 4 3 1 1 1 0
0 0 0 1 2 2 1 2 4 5 6 8 12 16 22 24 23 20 18 19 26 34 40 41 38 36 35 34 33 30 28 26 24 20 16 14 12 10 9 9 9 8 7 6 5 4 4 3 2
0 0 0 1 2 4 5 5 6 8 9 13 18 23 26 26 24 21 20 21 27 35 40 40 38 36 32 31 32 31 28 26 23 19 15 12 10 9 10 12 14 14 11 9 9 9 9 8 6
0 0 0 1 3 5 7 8 8 10 11 16 25 31 29 26 22 20 19 19 25 34 38 37 38 38 35 34 36 32 27 25 22 20 18 15 12 11 13 18 23 22 18 14 13 14 13 12 11
0 0 0 2 3 5 6 8 10 12 13 17 27 34 31 26 22 19 18 20 25 34 37 36 39 42 42 43 42 36 32 30 26 25 25 22 19 19 21 25 29 28 23 19 18 17 15 13 13
0 0 1 3 5 6 6 8 12 15 16 19 27 31 28 24 21 19 19 22 29 36 38 37 42 49 52 52 49 44 42 41 38 36 34 31 29 29 29 30 30 29 25 23 21 18 14 12 12
0 1 2 4 6 6 7 8 12 16 17 19 23 24 22 21 21 21 23 27 34 39 41 40 46 55 60 60 57 52 51 52 52 49 42 36 34 33 32 32 31 28 25 21 19 17 13 12 12
1 2 4 5 5 5 6 7 9 12 14 15 15 17 19 22 24 27 32 37 43 46 47 47 51 58 63 63 60 56 55 55 56 54 46 38 34 33 32 31 29 27 23 20 17 15 13 13 12
2 3 3 4 3 2 3 5 8 9 9 9 10 13 17 22 27 34 40 46 52 54 55 54 55 60 65 62 57 54 53 52 51 49 46 39 34 32 31 29 28 26 23 20 19 17 15 14 14
2 2 2 2 1 1 2 4 7 7 6 7 11 15 19 23 29 34 41 49 54 58 60 57 55 60 63 58 53 51 50 50 48 45 44 40 35 32 31 29 27 25 22 20 19 19 17 15 14
1 0 1 1 1 0 1 4 5 5 5 9 13 18 23 26 29 34 40 46 53 59 61 58 56 59 60 56 51 49 49 50 48 44 42 38 33 32 32 31 27 24 23 20 18 19 18 15 13
0 0 0 1 1 1 3 4 4 4 5 8 14 21 26 27 29 35 41 45 51 57 60 59 59 60 60 57 52 49 48 47 43 40 39 37 32 30 31 31 28 25 23 21 18 17 16 13 12
0 0 0 1 1 2 2 3 3 4 4 6 12 21 26 27 29 35 40 44 49 54 57 58 59 61 62 60 56 51 46 41 37 35 36 36 33 30 29 29 28 25 23 21 18 15 13 12 11
0 0 0 0 0 1 1 2 2 4 3 4 9 18 25 27 30 36 41 44 48 52 54 54 56 59 61 59 56 50 44 38 35 35 35 36 35 31 27 27 25 24 23 20 16 14 11 9 9
0 0 0 0 0 0 1 2 3 4 3 3 6 13 22 27 30 35 39 43 46 49 51 52 53 56 58 56 52 47 42 37 36 37 37 36 34 30 27 26 25 23 22 18 14 11 9 6 5
0 0 0 0 0 0 1 2 4 4 3 4 6 9 16 24 27 30 33 36 39 41 45 50 52 54 55 54 49 45 40 36 36 38 39 36 31 26 25 28 27 25 22 16 12 9 8 6 4
0 0 0 0 0 0 0 1 3 3 3 4 6 7 11 18 23 25 27 27 28 31 37 45 50 52 54 52 48 44 39 35 35 37 36 32 27 24 25 28 29 25 20 14 10 9 9 8 6
0 0 0 0 0 0 0 0 1 2 2 4 5 6 8 13 19 22 24 24 24 27 33 39 45 49 50 48 45 42 38 34 32 31 28 25 25 26 27 28 26 21 16 13 10 9 10 9 8
0 0 0 0 0 0 0 0 1 1 2 5 6 7 9 13 17 21 24 26 27 31 35 37 42 46 46 43 42 40 38 34 28 25 23 21 22 24 25 25 23 19 15 12 10 10 10 9 8
0 0 0 0 0 0 0 0 1 1 3 5 7 9 11 14 17 21 24 26 28 32 35 37 41 45 44 42 41 39 36 32 26 23 21 18 18 18 19 21 20 18 15 12 11 10 9 8 7
0 0 0 0 0 0 0 0 1 3 5 5 6 9 12 14 17 19 21 22 25 29 31 33 37 41 40 38 37 36 33 30 26 23 19 16 15 15 16 17 17 16 14 11 10 10 8 7 7
0 0 0 0 0 0 0 0 1 3 5 4 4 7 10 13 16 18 18 19 22 24 26 29 32 33 32 31 30 30 30 29 26 20 15 13 13 14 15 16 14 12 11 10 9 8 7 6 6
0 0 0 0 1 1 0 0 0 1 3 3 3 4 8 13 17 19 19 19 20 20 21 24 26 26 25 23 23 24 26 27 25 18 14 13 12 12 13 13 11 8 8 8 7 7 6 4 4
0 0 0 1 2 2 1 0 0 0 1 3 3 4 6 13 18 20 21 20 19 18 18 20 22 22 21 19 20 21 23 26 23 17 14 13 12 10 10 10 7 6 6 6 6 6 5 4 3

GEFSSGP_con_probscp_198.txt.gz
Probability
0 0 0 0 0 0 0 0 0 0 1 3 6 8 9 10 9 6 2 1 4 11 23 34 36 34 32 30 28 24 20 17 13 8 4 3 2 2 2 1 0 0 0 0 0 0 0 0 0
0 0 0 0 0 0 0 0 0 0 1 3 6 9 12 16 15 9 3 3 9 16 24 33 39 38 34 30 27 24 19 16 13 10 5 3 2 1 1 1 0 0 0 0 0 0 0 0 0
0 0 0 0 0 0 0 0 0 1 2 3 5 10 15 19 17 10 6 9 15 20 25 34 43 44 38 33 29 24 20 16 13 10 6 3 2 1 1 1 1 0 0 0 0 0 0 0 0
0 0 0 0 0 0 0 0 1 2 3 3 5 11 16 17 15 11 11 16 19 21 26 37 45 46 43 39 33 27 23 19 13 8 5 4 3 3 2 2 2 1 0 0 0 0 0 0 0
0 0 0 0 0 0 0 0 1 3 4 5 8 15 18 19 18 17 17 19 21 23 30 38 43 44 44 43 39 32 28 25 18 10 6 4 3 3 3 3 3 2 1 0 0 0 0 0 0
0 0 0 0 0 0 0 0 1 2 5 7 12 18 20 20 22 21 20 21 23 28 34 37 38 39 42 44 42 37 33 31 24 14 8 6 4 3 3 3 4 3 1 0 0 0 0 0 0
0 0 0 0 0 0 0 1 1 3 6 8 13 19 20 20 21 23 23 24 27 33 37 36 33 33 36 40 41 40 38 34 26 17 11 7 5 4 4 5 5 4 2 1 1 0 0 0 0
0 0 0 0 0 0 1 3 5 8 9 11 14 17 18 18 20 23 27 30 32 36 37 35 32 30 30 33 37 40 39 34 27 18 12 9 8 6 6 6 8 7 5 4 2 1 0 0 0
0 0 0 0 0 1 3 7 10 14 17 18 18 19 20 20 20 24 31 34 34 34 34 32 30 29 28 29 33 36 36 33 26 17 12 10 9 7 6 7 9 9 8 7 4 2 1 1 1
0 0 0 0 0 2 5 9 13 18 22 23 22 23 24 22 21 25 30 32 32 30 27 27 27 28 29 30 30 32 32 30 24 16 12 10 9 7 6 7 8 9 10 8 6 4 4 4 5
0 1 1 1 2 5 7 9 13 16 18 18 20 23 25 23 22 24 26 27 29 28 25 23 24 26 29 31 31 29 29 27 23 17 13 9 7 7 6 7 7 8 9 8 7 6 6 7 7
1 2 2 2 4 7 9 9 12 13 11 11 16 20 23 23 22 22 23 24 27 29 26 24 24 26 29 31 30 28 26 25 22 18 13 9 7 6 6 6 6 6 7 8 7 6 6 6 6
3 2 2 1 3 6 10 11 12 12 11 14 19 22 23 22 22 22 23 25 28 30 28 25 25 27 29 31 29 26 25 23 21 18 14 10 8 7 7 7 6 6 6 7 6 6 5 5 5
3 2 1 0 1 5 9 11 12 13 16 21 24 25 23 21 21 22 24 28 31 33 31 29 28 28 30 30 29 27 26 23 20 17 14 10 9 8 7 7 7 6 6 6 6 5 4 5 5
3 2 1 0 1 3 6 8 8 11 18 22 25 24 22 19 19 22 25 30 35 37 36 35 33 31 30 30 28 27 27 25 21 17 15 12 10 9 8 7 7 6 6 6 5 4 3 4 6
2 1 0 0 0 1 3 4 5 8 15 19 20 20 19 18 20 23 28 32 36 39 40 41 38 32 29 27 26 26 26 24 21 18 17 15 12 9 7 6 6 6 6 5 5 4 3 4 5
1 0 0 0 0 1 2 2 3 5 11 15 16 17 17 18 20 26 31 33 35 40 43 42 38 32 27 24 24 23 21 20 19 18 18 17 14 11 8 7 6 6 6 6 5 4 3 3 4
0 0 0 0 0 1 1 1 2 4 8 12 14 16 18 19 20 25 30 32 35 39 42 41 37 33 28 24 22 20 18 17 17 17 17 17 15 12 10 8 7 7 7 7 6 5 3 3 2
0 0 0 0 0 0 0 0 1 3 6 10 14 17 19 20 21 25 29 32 33 37 38 38 37 34 30 25 21 18 16 16 16 16 16 15 13 12 9 8 7 7 7 7 7 5 3 1 1
0 0 0 0 0 0 0 0 1 2 3 6 11 15 19 20 21 25 29 32 33 33 34 34 34 32 30 27 22 17 15 16 16 16 14 12 11 10 7 5 5 5 5 6 7 5 2 1 0
0 0 0 0 0 0 0 0 0 1 2 4 8 14 18 18 19 23 28 31 32 33 32 31 31 31 31 28 23 17 14 14 15 14 12 10 9 8 5 3 2 2 3 4 4 3 1 0 0
0 0 0 0 0 0 0 0 0 0 1 3 7 13 18 18 18 21 23 25 28 30 30 29 30 32 32 29 23 17 13 12 11 11 11 9 8 7 5 3 1 1 1 2 2 1 0 0 0
0 0 0 0 0 0 0 0 0 0 0 2 5 12 18 19 18 18 18 18 19 23 25 26 27 29 30 28 23 17 13 11 9 10 10 8 7 6 6 4 2 1 1 2 1 1 0 0 0
0 0 0 0 0 0 0 0 0 0 1 1 4 9 14 16 16 14 14 14 14 17 20 22 23 24 26 26 21 16 13 11 10 11 9 7 6 6 5 3 1 1 2 3 2 1 0 0 0
0 0 0 0 0 0 0 0 0 1 2 3 4 6 9 11 11 11 11 12 12 13 16 20 22 22 22 21 18 16 13 12 11 11 9 7 6 6 4 3 1 0 2 3 3 1 0 0 0
0 0 0 0 0 0 0 0 0 1 2 3 4 4 6 6 7 8 9 10 10 11 14 19 22 22 20 17 14 13 11 10 10 9 8 7 6 6 4 3 1 1 2 3 2 1 0 0 0
0 0 0 0 0 0 0 0 0 0 1 2 3 4 4 4 5 5 6 8 9 11 14 17 20 20 16 12 9 7 7 6 6 6 6 6 6 6 4 3 2 1 3 3 2 0 0 0 0
0 0 0 0 0 0 0 0 0 0 0 1 2 3 4 5 4 3 4 6 9 13 14 15 17 15 11 8 5 4 4 2 2 3 4 4 5 5 4 3 3 2 3 3 1 0 1 1 0
0 0 0 0 0 0 0 0 0 0 0 0 1 2 3 4 3 3 4 6 9 12 13 13 13 12 9 6 4 3 2 1 0 1 2 3 3 3 2 2 3 3 3 2 1 1 2 2 1
0 0 0 0 0 0 0 0 0 0 0 0 0 1 3 3 2 2 5 7 9 11 12 12 11 11 9 7 5 4 2 1 0 0 1 1 1 1 1 1 1 2 3 2 1 2 3 2 1

GEFSSGP_con_probscp_204.txt.gz
Probability
0 0 0 0 0 0 0 0 0 0 0 0 0 0 1 0 0 0 1 3 7 14 22 30 36 37 36 37 38 36 34 32 29 27 24 20 16 12 9 6 4 3 3 4 5 4 3 2 1
0 0 0 0 0 0 0 0 0 0 0 1 1 1 1 1 0 0 2 4 9 16 22 28 34 39 40 40 37 35 33 31 30 29 26 21 16 12 9 6 5 4 4 4 4 4 3 1 0
0 0 0 0 0 0 0 0 0 0 1 2 2 3 2 1 0 1 4 8 12 19 25 29 34 40 43 41 37 34 32 30 29 29 27 21 15 11 8 6 6 6 6 5 5 4 3 1 0
0 0 0 0 0 0 0 0 0 1 2 3 3 3 3 2 2 4 8 10 14 21 28 32 36 39 41 41 39 37 33 30 27 26 23 19 14 10 7 6 6 6 6 6 6 5 4 2 1
0 0 0 0 0 0 0 0 1 1 3 3 3 3 3 4 5 8 12 13 15 21 27 32 37 41 42 42 42 39 35 31 28 24 20 16 12 8 6 6 6 6 6 6 6 6 5 4 2
0 0 0 0 0 0 0 1 2 2 3 3 3 3 4 5 8 11 14 14 16 20 24 28 35 42 45 45 42 38 36 34 30 24 17 14 11 7 5 4 5 6 6 6 6 6 6 5 4
0 0 0 0 0 0 1 1 2 2 3 3 3 3 4 8 11 14 15 16 18 21 23 25 29 37 42 43 39 36 35 35 31 23 17 13 10 7 5 4 5 5 6 6 6 6 6 6 6
0 0 0 0 0 0 1 2 2 3 3 4 3 3 6 11 15 17 18 18 19 20 21 22 25 28 32 35 35 35 35 35 32 26 19 14 11 10 8 6 5 5 4 5 6 6 6 6 6
0 0 0 0 0 0 2 3 4 5 5 5 5 5 9 15 20 21 21 19 18 16 17 19 22 23 25 28 31 33 34 34 33 29 25 19 15 13 11 8 7 5 5 6 7 7 7 7 7
0 0 1 2 1 1 3 4 6 7 7 6 6 9 14 21 24 23 21 19 16 14 14 16 18 20 23 26 28 30 33 33 31 30 27 22 17 14 12 10 8 7 6 7 8 7 7 7 7
1 1 2 4 3 2 3 5 6 6 6 6 7 13 19 23 24 23 21 18 15 14 14 15 16 18 22 26 27 29 31 31 28 26 24 20 16 14 11 10 9 8 7 8 8 8 7 7 7
3 3 4 6 5 3 3 5 6 6 5 4 8 15 22 22 20 20 19 18 16 14 16 17 17 18 20 23 24 25 26 26 24 21 19 16 14 12 10 9 8 8 7 7 7 7 7 7 7
1 2 4 5 5 3 3 4 6 5 4 4 8 15 20 21 18 17 18 18 17 16 16 18 19 18 19 19 20 19 19 18 18 17 16 16 15 12 8 6 6 5 5 5 5 5 6 6 6
0 1 3 4 3 3 3 3 4 4 3 5 10 15 19 20 17 15 16 18 18 17 17 16 17 18 18 17 17 16 15 14 15 15 14 15 15 13 8 5 3 3 3 3 3 3 4 4 5
1 1 2 2 1 1 1 2 2 3 4 8 13 17 20 19 16 14 15 16 16 18 18 17 16 17 17 15 15 15 13 13 14 14 12 13 14 12 8 4 3 3 2 3 3 3 3 3 3
0 1 1 1 0 0 0 0 2 3 6 12 17 20 21 20 15 12 14 16 18 20 21 19 18 18 16 14 13 13 11 11 13 13 12 12 12 11 8 6 3 2 1 1 2 3 3 3 4
0 0 0 0 0 0 0 0 2 3 7 14 21 23 23 20 16 12 13 16 21 23 22 19 19 18 16 14 13 11 10 10 11 12 13 13 14 12 9 7 5 2 0 0 1 1 3 3 4
0 0 0 0 0 0 0 1 2 2 5 12 20 23 21 17 13 11 12 14 19 22 22 19 19 19 17 15 13 11 11 11 11 12 12 14 14 13 10 8 6 4 2 1 0 1 2 2 2
0 0 0 0 0 0 0 1 1 1 3 9 14 17 16 12 10 11 12 13 15 19 21 20 19 19 19 16 14 12 11 11 12 12 12 13 13 12 10 8 7 5 4 2 1 1 1 1 1
0 0 0 0 0 0 0 0 0 1 2 5 7 9 9 10 11 13 14 13 13 15 19 19 18 18 18 16 13 11 11 11 12 12 12 12 11 10 8 7 5 4 4 3 2 1 0 0 0
0 0 0 0 0 0 0 0 0 0 1 2 3 3 4 7 11 14 14 12 11 12 15 15 14 15 16 15 12 11 11 10 10 11 11 11 10 8 7 5 3 2 2 1 1 1 0 0 0
0 0 0 0 0 0 0 0 0 0 1 2 3 2 2 4 7 9 9 8 9 10 11 11 10 11 12 12 12 12 12 10 9 9 9 9 9 7 5 4 2 1 1 1 0 0 0 0 0
0 0 0 0 0 0 0 0 0 0 0 1 2 2 2 2 3 4 4 4 7 10 10 10 8 7 6 8 9 10 10 10 8 8 8 8 7 6 4 3 2 1 0 0 0 0 0 0 0
0 0 0 0 0 0 0 0 0 0 0 0 1 1 1 1 2 1 2 3 5 8 9 9 7 4 4 6 8 7 8 9 8 7 7 6 6 5 4 3 3 1 0 0 0 0 0 0 0
0 0 0 0 0 0 0 0 0 0 0 0 0 0 0 1 2 2 3 3 4 5 7 7 6 4 5 7 8 6 6 6 6 6 6 5 4 5 4 3 3 2 1 0 0 0 0 0 0
0 0 0 0 0 0 0 0 0 0 0 0 0 0 0 1 3 3 3 3 3 3 4 6 6 7 8 8 7 6 4 2 2 3 3 3 3 4 3 2 3 2 1 0 0 0 0 0 0
0 0 0 0 0 0 0 0 0 0 0 0 0 0 0 1 3 4 3 3 3 2 3 6 8 9 9 8 6 5 2 1 0 0 1 1 3 4 2 1 2 2 1 0 0 0 0 0 0
0 0 0 0 0 0 0 0 0 0 0 0 0 1 1 2 3 4 4 3 2 2 3 6 8 9 8 7 6 5 3 2 1 0 0 1 2 3 1 0 1 1 0 0 0 0 0 0 0
0 0 0 0 0 0 0 0 0 0 0 0 0 1 2 2 2 3 3 2 2 2 4 5 6 6 6 6 5 4 3 2 1 0 0 0 1 1 0 0 0 0 0 0 0 0 0 0 0
0 0 0 0 0 0 0 0 0 0 0 0 0 0 1 1 1 1 1 1 1 2 4 5 5 4 4 4 4 4 3 1 0 0 0 0 0 0 0 0 0 0 0 0 0 0 0 0 0

GEFSSGP_con_probscp_210.txt.gz
Probability
0 0 0 0 0 0 0 0 0 0 0 0 0 0 0 0 1 0 1 3 10 23 32 31 31 31 29 29 30 29 28 28 29 28 25 22 17 12 10 7 4 3 3 3 2 1 0 0 0
0 0 0 0 0 0 0 0 0 0 0 0 0 0 0 1 1 1 1 4 11 25 33 33 33 33 32 32 32 31 30 30 31 28 23 18 13 9 8 5 4 3 3 3 3 1 0 0 0
0 0 0 0 0 0 0 0 0 0 0 0 0 0 0 1 1 2 4 8 16 28 35 36 35 35 35 34 33 32 31 31 31 26 19 13 9 7 5 4 3 3 3 3 3 2 1 0 1
0 0 0 0 0 0 0 0 0 0 0 0 0 0 0 1 1 3 7 13 21 28 33 35 34 35 35 33 30 29 30 30 30 25 17 12 9 7 4 3 3 3 3 3 3 3 2 1 1
0 0 0 0 0 0 0 0 0 0 0 0 0 0 0 1 2 4 7 14 20 25 29 31 31 32 33 32 30 29 30 32 32 27 19 14 12 9 6 4 3 3 3 3 3 3 3 2 2
0 0 0 0 0 0 0 0 0 0 1 1 2 2 2 4 5 6 6 10 16 22 26 29 28 28 30 32 33 32 32 34 33 29 23 18 15 13 9 5 3 3 3 4 4 4 4 3 3
0 0 0 0 0 0 0 0 0 0 1 3 4 4 5 7 10 11 9 10 14 21 27 28 25 24 25 29 32 33 34 34 35 31 27 22 19 16 12 7 5 5 5 5 6 6 5 5 5
0 0 0 0 0 0 0 0 0 0 1 2 4 5 6 9 15 17 15 13 16 22 26 26 23 22 21 23 26 30 32 33 33 32 28 24 19 17 14 11 10 9 7 6 6 6 7 7 7
0 0 0 0 0 0 0 0 0 0 0 1 3 5 7 11 17 20 17 16 21 25 26 24 24 23 20 18 20 22 25 27 27 28 26 20 17 15 14 13 13 12 9 7 6 6 6 7 8
0 0 0 1 1 1 0 0 1 1 0 1 5 7 8 12 18 20 16 16 22 26 25 23 24 22 19 17 16 15 16 20 21 21 20 16 13 13 12 12 12 11 10 8 6 5 6 7 7
0 1 1 3 3 2 0 0 1 1 1 3 6 9 10 14 21 22 19 18 21 23 22 21 22 21 19 18 16 14 16 19 20 19 19 17 17 16 15 14 12 10 11 10 7 6 6 6 6
1 2 3 4 5 4 2 1 1 3 3 4 7 9 11 17 24 26 24 23 22 21 21 20 21 23 22 20 19 19 22 22 21 23 23 22 23 22 20 19 14 12 13 13 11 8 6 5 5
1 3 5 6 6 5 3 2 3 5 5 5 6 8 12 19 25 27 27 27 25 24 24 24 25 25 24 23 22 23 25 24 24 26 26 24 24 23 22 21 17 14 14 15 13 9 6 5 5
1 3 5 6 6 4 3 3 4 5 5 4 4 6 10 16 22 27 29 28 25 25 25 26 28 28 27 26 24 23 24 24 25 27 28 25 23 22 20 20 18 14 13 14 12 9 6 4 4
1 1 3 4 4 3 1 1 2 3 3 2 2 3 7 12 18 23 26 25 24 23 24 26 28 30 30 29 27 24 22 23 24 27 29 27 25 23 20 19 18 15 14 15 13 10 6 3 1
1 1 1 2 3 1 0 0 1 2 1 1 2 4 7 12 16 18 19 22 23 25 26 26 28 30 31 31 29 25 22 22 23 26 28 28 27 25 22 21 19 16 16 17 17 13 8 3 0
1 0 0 1 1 1 0 0 1 2 2 2 4 7 10 15 17 16 16 19 23 27 29 27 27 29 30 31 31 27 24 24 25 27 28 28 26 24 22 22 21 18 17 18 18 16 12 6 3
0 0 0 0 0 0 0 0 1 2 1 2 6 9 12 16 18 17 17 19 22 26 29 28 27 29 31 33 32 30 29 28 26 26 26 25 22 20 19 20 19 19 18 18 18 18 16 11 8
0 0 0 0 0 0 0 0 1 1 1 3 7 10 13 16 18 18 18 19 20 21 26 28 28 30 33 34 34 34 34 32 28 25 22 20 20 20 20 19 19 20 21 21 20 19 18 15 12
0 0 0 0 0 0 0 0 0 0 2 4 7 9 12 16 19 20 20 19 18 18 22 26 30 33 34 34 34 35 35 31 27 23 20 19 21 22 22 22 21 22 23 22 22 22 20 17 16
0 0 0 0 0 0 0 0 0 0 1 3 4 5 8 13 17 20 20 18 16 17 21 25 29 31 32 32 31 31 30 27 24 22 20 19 21 22 22 22 22 22 21 19 20 21 20 19 19
0 0 0 0 0 0 0 0 1 0 0 1 1 2 4 7 13 17 18 15 13 15 19 23 25 27 29 31 30 28 25 23 22 21 21 20 19 19 19 20 21 20 18 17 18 19 19 19 18
0 0 0 0 0 0 0 0 1 0 0 0 1 1 2 4 9 14 15 12 10 10 13 17 21 24 26 27 28 27 25 24 24 23 22 20 18 16 15 16 18 17 15 16 18 19 19 17 15
0 0 0 0 0 0 0 1 1 1 0 0 1 2 3 3 6 10 12 11 10 9 11 14 19 22 23 23 24 26 26 25 24 24 23 21 17 15 14 14 14 14 13 16 18 19 18 16 14
0 0 0 0 0 0 0 1 1 1 0 0 1 3 4 4 6 8 9 10 11 11 11 13 17 20 19 20 22 24 26 25 24 23 23 21 17 15 13 12 11 10 11 13 15 16 15 14 12
0 0 0 0 0 0 0 0 0 0 0 0 0 1 4 5 7 8 8 8 10 11 12 13 15 18 19 20 22 23 23 23 22 21 20 19 17 14 12 10 8 7 7 8 9 10 10 10 10
0 0 0 0 0 0 0 0 0 0 0 0 0 1 3 5 7 8 8 7 7 9 10 11 13 16 19 20 20 20 19 19 19 18 17 16 16 13 10 7 4 4 5 4 4 4 6 7 7
0 0 0 0 0 0 0 0 0 0 0 0 0 1 2 4 5 6 6 6 6 7 9 9 11 13 15 17 17 17 16 14 14 14 13 13 12 10 7 4 3 3 4 4 3 3 4 5 5
0 0 0 0 0 0 0 0 0 0 0 0 0 0 1 2 3 4 5 6 6 7 8 8 9 10 11 13 14 15 14 13 12 11 10 9 7 5 3 1 2 4 5 5 3 3 3 3 4
0 0 0 0 0 0 0 0 0 0 0 0 0 0 0 1 3 4 5 6 6 7 7 8 8 8 9 10 11 12 13 13 12 10 8 6 5 4 1 1 2 3 4 5 4 3 3 3 3

GEFSSGP_con_probscp_216.txt.gz
Probability
0 0 0 0 0 0 0 0 0 1 2 3 4 5 8 8 6 4 8 22 39 42 36 33 32 29 24 19 13 6 1 0 0 0 1 1 1 2 3 3 3 3 3 3 3 3 3 3 3
0 0 0 0 0 0 0 0 1 1 2 3 3 5 7 8 7 6 10 25 39 41 36 34 34 31 26 21 16 10 5 3 2 2 3 3 3 3 3 3 3 3 3 3 3 3 3 3 3
0 0 0 0 0 0 0 0 1 1 1 1 3 4 6 8 8 8 16 30 41 41 38 37 37 34 29 24 20 16 12 10 8 7 5 5 5 5 5 4 3 3 3 3 3 3 3 3 3
0 0 0 0 0 0 0 0 1 1 0 1 2 4 6 9 9 11 18 30 40 42 40 38 37 35 30 26 24 22 19 18 16 12 9 8 8 8 8 6 4 4 4 4 4 4 4 4 4
0 0 0 0 0 0 0 0 0 1 1 2 4 6 8 8 10 13 17 24 33 40 40 36 36 35 31 29 29 28 25 23 21 18 15 14 13 13 12 9 6 6 6 6 6 6 6 6 6
0 0 0 0 0 0 0 0 1 2 2 3 6 9 9 9 11 13 14 19 29 38 40 36 34 33 31 31 31 30 28 25 23 21 21 20 19 18 15 11 9 8 8 8 7 7 6 6 6
0 0 0 0 0 0 0 0 1 2 3 5 8 11 12 12 11 10 12 18 29 39 40 34 29 28 29 30 30 29 28 26 24 23 24 23 22 20 16 13 11 10 10 9 8 7 6 6 6
0 0 0 0 1 1 1 1 2 3 4 7 10 12 14 15 13 11 13 20 30 40 41 33 27 25 24 24 25 26 26 25 24 24 24 23 20 18 15 13 13 13 12 10 8 7 6 6 6
0 0 0 1 1 1 1 2 3 4 6 10 13 13 13 15 15 15 18 24 32 41 42 36 30 25 21 21 22 22 22 22 22 22 22 20 17 14 12 13 15 15 12 10 8 7 6 5 5
0 0 1 2 2 1 1 2 3 3 7 14 17 16 14 14 15 19 23 28 34 39 38 34 31 26 21 21 23 20 18 20 19 19 20 17 13 12 13 15 17 16 12 10 9 7 5 5 5
0 0 1 2 1 0 0 2 2 3 7 15 18 16 15 14 14 19 25 30 34 34 29 27 29 26 24 25 25 21 19 20 19 18 19 17 13 12 15 18 19 18 13 10 9 7 5 5 5
1 0 1 1 0 0 0 2 4 5 9 15 15 13 13 13 14 19 25 30 35 34 28 25 29 30 30 31 29 24 22 22 21 21 22 20 17 15 17 20 21 19 15 12 11 9 6 5 5
1 0 0 0 0 0 1 4 6 8 11 14 11 8 9 12 16 22 28 33 39 40 34 30 33 36 38 37 33 27 26 26 25 25 26 25 23 23 24 25 24 19 16 15 13 11 10 8 7
1 0 0 0 0 0 2 4 7 8 9 10 8 6 8 13 20 28 34 39 44 44 40 37 38 40 41 39 35 31 30 29 28 29 30 28 27 30 31 30 27 22 18 17 16 15 15 13 10
0 0 0 0 0 0 1 3 5 6 6 7 6 5 8 15 22 30 37 43 46 46 44 43 42 41 40 38 35 33 33 32 32 34 34 30 28 31 32 30 28 24 21 22 22 21 19 16 12
0 0 0 0 0 0 1 2 4 4 5 7 7 6 10 16 22 28 35 40 43 44 45 44 42 43 43 40 36 35 35 36 38 40 38 33 30 32 33 31 28 25 25 26 27 25 22 17 14
0 0 0 0 0 1 1 2 4 4 5 8 9 10 15 19 22 27 31 34 36 39 41 41 41 44 47 44 38 35 35 39 42 42 40 37 34 33 32 31 28 25 25 27 27 26 24 19 17
0 0 0 0 0 1 2 3 4 4 5 8 11 14 19 23 25 27 30 32 33 36 37 37 38 44 47 44 38 32 33 37 41 42 40 38 35 31 29 28 27 25 25 27 27 25 23 20 18
0 0 0 0 0 1 2 3 4 5 6 8 10 14 19 24 26 28 31 32 34 35 36 36 39 45 48 44 37 32 32 36 38 39 37 34 31 29 27 24 25 26 26 27 27 24 20 18 17
0 0 0 0 0 1 1 2 4 7 7 7 8 11 17 23 26 27 28 30 32 36 37 38 42 45 45 42 38 35 34 35 34 34 32 28 26 28 25 24 25 27 26 25 24 21 18 17 17
0 0 0 0 0 0 0 1 4 7 8 7 7 9 15 22 25 24 23 23 26 31 34 37 42 42 38 36 37 38 37 34 31 30 30 27 25 26 26 24 25 26 23 21 20 19 17 17 16
0 0 0 0 0 0 0 0 3 7 8 7 7 9 13 19 22 20 18 17 19 23 28 33 37 36 32 31 34 37 37 34 30 29 30 29 25 24 24 23 22 23 22 20 19 18 18 17 16
0 0 0 0 0 0 0 1 3 6 7 6 7 9 14 18 18 16 15 15 16 18 23 26 28 29 29 31 33 36 36 34 31 30 30 28 25 23 22 21 22 23 22 21 20 19 18 16 16
1 1 0 0 0 0 0 1 3 5 6 6 8 10 14 17 17 16 15 17 18 18 19 20 21 23 26 29 31 34 34 33 33 31 29 27 24 22 22 21 22 23 22 22 21 20 17 15 14
0 0 0 0 0 0 0 1 2 4 4 5 8 10 13 16 17 17 17 18 20 19 18 18 20 22 24 26 28 30 31 30 30 29 27 25 23 21 20 20 20 21 21 20 19 18 16 15 14
0 0 0 0 0 0 0 0 1 2 2 3 5 7 10 14 16 16 16 18 20 19 17 17 19 22 23 24 25 26 26 25 24 24 23 22 20 19 18 19 20 19 18 16 15 15 15 15 14
0 0 0 0 0 0 0 0 0 0 1 1 2 4 8 12 13 12 13 16 18 17 15 16 18 20 21 22 22 22 21 19 19 19 20 20 19 18 18 19 19 18 15 13 13 14 14 14 12
0 0 0 0 0 0 0 0 0 1 1 2 2 4 8 10 10 9 10 13 14 14 14 15 18 18 18 18 18 18 17 16 15 17 18 19 18 17 17 16 16 13 11 11 12 12 12 12 12
0 0 0 0 0 0 0 0 1 2 3 4 4 6 8 9 7 6 8 10 10 10 11 14 15 15 14 15 15 15 14 13 13 14 15 16 15 14 12 11 10 8 8 10 10 10 9 9 10
0 0 0 0 0 0 0 0 1 3 5 5 6 7 8 7 5 4 6 8 8 8 9 10 12 12 12 12 12 12 12 11 11 12 13 13 12 10 9 8 7 6 7 9 10 9 8 6 6

GEFSSGP_con_probscp_222.txt.gz
Probability
0 0 0 0 0 0 0 0 0 0 1 3 6 8 12 12 9 5 2 2 7 12 18 28 38 41 36 31 27 21 15 12 10 7 6 8 9 8 5 4 3 4 3 3 2 2 2 2 3
0 0 0 0 0 0 0 0 0 1 2 5 9 12 15 15 11 6 3 5 10 14 17 25 36 42 40 34 28 23 18 14 11 9 8 10 11 10 7 4 3 4 4 3 1 1 1 1 2
0 0 0 0 0 0 0 0 1 3 5 8 12 15 15 12 8 6 7 11 15 17 18 24 35 43 43 37 29 23 20 15 13 12 12 12 12 10 8 5 3 4 5 3 1 0 0 0 1
0 0 0 0 0 0 0 1 3 6 9 12 14 14 12 7 6 7 11 16 18 20 22 28 38 43 42 36 29 25 22 19 15 14 13 13 10 8 7 5 4 5 4 2 1 0 0 0 0
0 0 0 0 0 0 0 1 5 10 13 15 15 15 12 8 10 13 15 16 19 21 25 33 39 40 38 36 32 29 26 22 18 15 14 12 9 7 7 6 6 6 4 1 0 0 0 0 0
0 0 0 0 0 0 0 2 7 13 16 16 14 14 13 12 14 17 17 17 19 24 28 34 37 37 36 37 35 32 28 24 20 17 15 13 11 9 7 6 6 6 4 1 0 0 0 0 0
0 0 0 0 0 0 0 2 7 14 16 14 12 12 12 13 16 19 20 21 24 27 29 32 34 35 36 37 36 32 27 24 20 18 17 14 13 11 8 7 7 7 4 2 1 1 0 0 0
0 0 0 0 0 0 0 2 7 12 14 13 12 11 11 14 20 25 27 29 31 31 28 28 31 33 34 33 31 28 25 22 19 17 16 13 11 10 9 9 9 7 5 4 3 3 2 1 0
0 0 0 0 0 0 1 3 6 10 14 15 14 12 13 18 25 31 34 35 35 32 28 26 27 29 29 28 26 24 22 20 17 15 14 12 11 9 9 10 10 9 7 6 5 5 4 2 1
0 0 0 0 0 1 3 4 7 11 14 15 15 15 19 23 29 33 35 35 33 30 28 25 24 23 23 23 22 20 18 17 16 15 14 13 11 10 9 9 9 9 7 5 5 5 4 2 1
0 0 0 0 0 2 3 5 8 11 12 11 11 16 21 25 28 30 31 32 32 29 27 25 22 21 20 20 20 18 16 16 15 14 14 13 11 10 9 9 9 9 7 5 3 2 1 1 0
0 0 0 0 0 1 3 5 8 10 10 8 9 14 20 24 25 24 24 27 30 31 30 27 24 22 21 20 19 17 16 16 15 13 13 13 12 10 9 8 8 8 7 5 3 1 0 0 0
0 0 0 0 0 0 2 5 7 9 10 9 9 13 17 20 21 21 20 23 28 32 32 29 26 23 22 21 19 16 15 16 16 15 14 14 13 11 9 8 8 7 6 4 4 2 1 0 0
0 0 0 0 0 0 2 4 5 7 9 10 10 12 14 16 18 19 20 22 27 30 31 30 28 25 23 20 18 15 13 15 16 17 16 16 15 13 9 8 8 7 4 3 4 3 1 0 0
0 0 1 0 0 0 1 3 4 5 7 10 11 12 12 12 13 16 19 24 28 29 27 28 29 27 26 22 18 14 13 14 15 16 17 17 15 12 9 8 8 6 4 4 4 3 2 1 1
0 0 0 0 0 0 1 1 2 3 4 8 10 12 12 11 11 13 18 25 28 27 26 26 28 29 29 25 20 16 14 13 12 13 15 14 12 10 9 9 8 6 4 4 4 3 3 3 3
0 0 0 0 0 0 0 0 0 1 4 7 10 12 13 12 10 12 17 22 24 24 23 22 24 27 26 24 21 18 16 13 11 11 11 11 10 10 10 10 9 8 6 5 4 4 4 5 5
0 0 0 0 0 0 0 0 0 1 4 8 11 12 12 11 9 11 15 16 17 18 18 17 19 20 20 19 18 16 14 13 11 11 10 9 9 10 10 10 10 9 8 6 6 5 5 6 6
0 0 0 0 0 0 1 1 1 2 5 8 10 10 9 9 8 10 13 13 12 12 13 14 15 15 12 12 12 11 10 10 10 10 10 9 8 8 7 8 9 8 7 6 7 6 6 6 6
0 0 0 0 0 0 1 1 1 1 4 7 8 8 7 6 8 10 12 12 10 9 10 11 12 10 8 7 7 7 6 6 7 9 9 9 8 7 5 5 6 6 4 4 5 5 5 5 6
0 0 0 0 0 0 1 1 0 1 4 8 9 8 7 5 7 10 11 11 9 8 9 10 8 6 4 4 5 6 6 6 6 6 7 8 9 8 7 5 5 5 4 2 2 3 4 4 4
0 0 0 0 0 0 0 0 0 1 5 8 10 9 6 5 7 9 10 10 10 9 10 10 7 4 3 4 5 6 7 6 6 6 6 8 9 9 8 7 7 6 5 3 2 3 3 3 3
0 0 0 0 0 0 0 0 0 1 3 5 7 7 7 7 8 9 9 10 11 11 12 10 6 3 3 5 6 7 7 6 6 6 6 7 8 8 8 9 10 9 6 4 3 3 3 4 4
0 0 0 0 0 0 0 0 0 1 1 1 3 6 8 8 8 9 9 9 10 11 11 9 6 3 3 5 7 8 8 7 7 7 7 7 7 7 8 10 12 11 7 4 3 4 4 5 6
0 0 0 0 0 0 0 0 0 1 0 0 1 5 6 5 5 6 7 7 7 7 7 7 6 4 4 6 8 9 8 7 8 8 8 9 7 6 7 9 12 11 8 5 5 6 6 6 6
0 0 0 0 0 0 0 0 0 0 0 0 1 3 4 2 2 3 4 4 3 3 4 6 6 6 6 7 8 9 8 8 8 8 9 10 9 8 7 8 9 10 9 7 7 7 6 6 6
0 0 0 0 0 0 0 0 0 0 0 0 1 2 3 2 1 1 2 2 1 1 3 4 5 6 7 6 6 6 7 8 8 7 8 9 9 8 8 7 8 9 9 8 8 6 5 4 4
0 0 0 0 0 0 0 0 0 0 0 0 0 1 3 2 1 0 0 1 1 2 3 3 5 7 7 6 5 5 7 8 8 7 7 7 6 6 7 7 8 8 8 7 6 5 3 2 1
0 0 0 0 0 0 0 0 0 0 0 0 0 1 2 2 1 0 0 0 1 1 3 4 5 7 6 6 5 5 6 7 7 6 6 5 3 3 4 5 6 6 5 5 5 4 2 1 0
0 0 0 0 0 0 0 0 0 0 0 0 0 0 1 1 0 0 0 0 0 1 3 5 6 6 6 5 5 5 5 6 6 5 4 4 2 2 3 4 4 4 4 3 4 3 1 0 0

GEFSSGP_con_probscp_228.txt.gz
Probability
0 0 0 0 0 0 0 0 0 0 0 1 1 0 0 0 1 2 1 1 3 8 15 21 25 29 31 29 26 29 32 32 32 31 29 26 22 18 15 11 8 6 5 4 4 3 3 2 2
0 0 0 0 0 0 0 0 0 0 1 2 2 1 1 1 2 3 2 2 5 9 14 20 25 28 31 31 31 31 33 33 32 30 29 27 24 19 15 12 9 7 6 5 4 3 3 2 1
0 0 0 0 0 0 0 0 0 2 3 4 3 2 2 2 3 3 2 3 6 10 14 21 27 29 30 33 35 35 36 36 36 34 32 29 26 21 16 12 9 8 7 6 4 3 2 1 1
0 0 0 0 0 0 0 0 2 4 6 6 4 2 2 3 4 3 3 5 10 14 18 23 28 30 30 32 35 37 39 40 39 37 33 29 25 21 16 12 10 9 9 7 4 3 2 1 0
0 0 0 0 0 0 0 1 3 5 6 6 5 3 2 3 4 4 5 8 14 20 23 26 30 31 30 31 34 37 38 38 37 34 29 25 21 19 16 14 11 10 8 5 3 3 1 0 1
0 0 0 0 0 0 0 2 4 6 6 6 6 5 4 3 5 7 8 11 17 23 26 27 30 32 31 31 33 35 35 34 32 29 25 21 18 16 15 14 11 9 7 4 3 2 2 2 2
0 0 0 0 0 0 0 2 4 6 6 5 6 6 5 6 10 14 16 17 20 24 26 28 30 33 32 30 32 34 33 31 29 26 22 21 18 15 13 13 11 9 7 5 4 4 4 5 5
0 0 0 0 0 0 0 1 4 6 7 7 7 6 8 12 18 23 23 22 22 23 26 28 32 35 35 34 33 32 30 27 25 24 21 19 16 13 12 13 12 9 6 6 5 6 6 6 7
0 0 0 0 0 0 0 2 5 8 11 10 8 8 11 18 24 26 25 22 22 23 24 28 32 35 36 36 33 29 26 22 22 22 20 17 14 11 11 12 11 9 7 6 5 5 5 6 6
0 0 0 0 0 0 1 3 6 9 11 10 9 11 17 22 24 23 22 21 22 24 25 27 29 30 32 31 29 28 27 23 21 21 20 17 15 12 11 11 10 10 9 7 6 5 4 4 5
0 0 0 0 0 2 3 4 5 6 7 7 9 14 20 22 21 20 21 21 22 25 27 26 26 27 27 26 26 28 29 25 22 21 20 19 18 15 13 11 10 10 10 9 8 6 5 5 7
0 0 0 0 1 3 4 3 3 5 5 6 10 15 18 19 20 20 21 22 23 25 26 25 26 26 25 24 24 25 26 24 21 20 20 19 19 18 15 12 11 11 10 10 10 9 7 7 8
0 0 0 0 1 3 3 1 2 5 5 7 11 13 13 15 18 20 20 21 22 24 24 25 26 27 26 23 20 20 20 20 19 19 19 19 19 18 15 13 13 13 11 11 11 9 7 7 9
0 0 0 0 1 2 1 1 3 5 7 8 10 11 12 13 15 16 17 17 18 19 22 25 27 27 26 21 17 15 14 15 16 18 18 17 17 16 15 14 13 13 12 11 10 8 7 6 7
0 0 0 0 0 0 1 1 2 5 8 9 9 9 9 11 12 12 13 14 14 17 21 25 26 24 22 18 14 12 11 11 13 16 16 16 14 14 15 15 12 11 11 9 7 6 6 5 5
0 0 0 0 0 0 0 0 1 3 7 8 7 5 5 6 7 8 10 12 14 17 21 23 23 20 18 16 12 10 9 10 11 13 14 14 12 13 15 14 11 10 10 8 5 5 5 4 3
0 0 0 0 1 1 1 0 0 3 5 6 4 3 3 3 3 3 6 9 12 15 18 19 19 17 16 14 10 8 8 9 9 11 12 12 12 13 14 13 11 9 8 7 6 5 5 4 3
0 0 0 0 1 1 1 0 1 4 5 5 3 2 2 1 0 0 2 4 7 11 14 16 17 16 15 12 8 7 8 7 8 8 9 10 11 12 12 11 10 9 7 6 5 4 4 3 3
0 0 0 0 1 1 0 0 1 3 4 3 2 1 1 0 0 1 1 1 3 6 9 12 14 14 12 9 7 7 7 6 5 6 6 6 7 8 8 7 7 7 6 4 4 3 3 3 3
0 0 0 1 2 2 1 0 1 2 2 1 0 0 0 0 1 2 3 3 3 4 7 10 11 10 8 6 5 5 4 4 4 3 3 4 4 4 4 4 5 5 4 4 4 4 3 3 3
0 0 0 1 2 2 1 0 1 1 1 0 0 1 1 2 4 5 5 5 5 5 7 10 9 6 4 4 3 2 2 3 3 3 3 3 3 3 3 3 3 3 3 3 5 5 4 3 3
0 0 0 0 1 1 0 0 1 1 2 1 1 2 3 4 6 7 6 6 6 5 6 7 7 4 3 2 2 1 1 2 3 3 3 3 3 3 2 1 2 3 2 2 5 6 5 4 3
0 0 0 0 0 0 0 0 0 1 2 1 1 2 2 3 5 7 7 6 5 4 4 5 5 3 1 1 1 0 0 2 3 3 3 3 2 1 1 0 1 2 2 1 3 4 4 3 3
0 0 0 0 0 0 0 0 0 1 1 1 0 1 1 1 2 4 6 6 5 4 4 4 3 1 0 0 0 0 1 2 3 3 3 3 2 0 0 0 0 1 2 2 3 4 4 4 4
0 0 0 0 0 0 0 0 0 0 0 0 0 0 0 0 0 2 4 4 4 5 4 3 1 0 0 0 0 0 1 2 3 3 2 2 2 1 0 0 0 0 1 3 5 6 6 6 6
0 0 0 0 0 0 0 0 0 0 0 0 0 0 0 0 0 0 1 1 2 3 3 1 0 0 0 0 0 1 1 2 2 1 1 2 2 1 1 0 0 0 0 2 6 8 8 8 8
0 0 0 0 0 0 0 0 0 0 0 0 0 0 0 0 0 0 0 0 0 1 1 0 0 0 0 0 1 2 2 2 1 1 1 2 1 1 2 2 1 0 1 2 5 7 7 7 7
0 0 0 0 0 0 0 0 1 0 0 0 0 0 0 0 0 0 0 0 0 0 0 0 0 0 0 0 1 2 2 1 1 1 2 2 2 2 3 3 2 1 1 3 4 5 5 5 4
0 0 0 0 0 0 0 0 0 0 0 0 0 0 0 0 0 0 0 0 0 0 0 0 0 0 0 0 0 1 1 0 0 1 2 2 3 3 3 3 3 2 2 3 3 3 3 3 3
0 0 0 0 0 0 0 0 0 0 0 0 0 0 0 0 0 0 0 0 0 0 0 0 0 0 0 0 0 0 0 0 0 1 1 2 3 4 4 3 3 2 2 3 3 3 3 3 3

GEFSSGP_con_probscp_234.txt.gz
Probability
0 0 0 0 0 0 0 0 0 0 0 0 0 1 2 2 2 3 4 4 5 10 14 17 19 19 16 14 14 17 22 26 26 24 19 12 9 9 9 10 9 8 6 5 2 1 0 0 0
0 0 0 0 0 0 0 0 0 0 0 0 1 2 3 3 4 5 5 5 6 10 15 19 21 21 19 16 17 21 24 27 27 26 21 15 13 12 11 10 9 9 7 4 1 0 0 0 0
0 0 0 0 0 0 0 0 0 0 0 0 1 2 3 4 6 6 5 4 6 10 15 19 22 22 21 21 23 26 28 27 26 25 22 19 17 16 13 11 11 10 8 5 3 2 1 0 0
0 0 0 0 0 0 0 1 0 0 0 0 1 2 2 3 5 5 5 4 6 8 12 18 21 22 23 24 27 28 28 27 26 24 22 20 18 16 13 12 13 12 9 8 7 6 4 1 0
0 0 0 0 0 0 0 0 0 0 0 0 0 2 3 4 4 4 4 3 4 4 8 16 23 25 25 24 25 26 27 28 27 24 21 20 17 15 14 12 12 12 12 11 9 8 6 3 1
0 0 0 0 1 1 1 0 0 0 0 1 1 3 6 7 5 3 2 1 1 1 6 17 24 26 24 23 24 25 26 27 26 23 20 19 17 16 15 13 12 13 14 13 10 9 8 5 2
0 0 0 0 1 1 1 0 0 0 1 2 3 5 8 10 8 4 2 1 1 2 6 15 23 24 23 22 23 24 25 24 22 21 19 17 16 16 17 15 14 14 14 13 11 9 8 6 5
1 0 0 0 0 0 0 0 0 1 2 3 4 7 10 12 11 8 5 5 6 6 8 14 20 21 20 20 21 23 24 20 17 17 16 15 15 15 15 15 15 15 14 12 10 8 7 7 6
1 0 0 0 0 0 0 0 1 2 3 5 7 10 14 15 14 13 11 11 13 13 15 17 19 19 17 17 19 21 21 18 15 13 13 13 13 13 12 13 14 15 14 12 9 8 7 6 5
1 0 0 0 0 0 0 1 3 4 5 7 10 14 18 18 17 16 15 16 16 18 22 24 22 18 16 18 20 20 19 17 14 12 12 13 14 13 12 13 14 14 13 12 11 10 8 5 3
0 0 0 0 0 0 1 2 4 5 6 8 12 16 18 19 18 17 17 18 18 20 24 26 24 20 19 21 23 23 23 19 15 14 14 15 17 16 15 15 15 13 13 13 13 12 9 5 3
0 0 0 0 0 1 2 3 4 6 7 9 11 13 15 16 16 18 20 21 20 21 24 25 25 26 28 29 29 30 29 25 20 18 18 18 19 19 18 17 17 16 15 15 15 14 10 6 4
0 0 0 0 0 1 2 3 4 6 8 8 9 10 12 14 15 19 23 24 22 21 23 24 26 29 33 36 34 33 31 29 25 23 21 20 20 21 21 21 20 19 19 18 16 14 10 8 6
0 0 0 0 0 0 1 2 4 7 7 7 8 9 13 16 16 18 22 24 22 21 22 23 25 28 32 34 32 30 28 27 25 24 21 18 18 20 23 23 23 21 20 20 17 13 10 8 7
0 0 0 0 0 0 1 3 5 6 6 8 10 11 13 15 15 15 18 20 21 22 22 22 24 26 27 27 26 25 24 22 23 24 21 17 17 19 22 23 24 23 21 19 17 13 10 8 7
0 0 0 0 0 0 1 2 4 4 4 8 11 12 12 12 14 15 17 19 21 25 26 26 26 26 26 25 26 25 23 21 22 23 21 18 17 17 19 21 23 24 22 19 16 14 11 9 8
0 0 0 0 0 1 1 2 3 2 3 6 9 11 11 11 13 17 21 23 25 28 30 30 31 30 29 28 28 27 25 22 21 21 22 20 18 16 17 19 22 24 25 22 17 15 14 12 11
0 0 0 0 1 2 3 3 2 2 2 3 5 8 9 10 13 19 23 25 25 27 30 31 33 34 33 31 28 26 23 20 18 18 20 20 19 17 16 16 20 23 25 24 21 18 17 16 15
0 0 0 0 1 2 3 3 2 2 2 2 2 4 6 8 13 19 22 23 24 25 29 31 32 32 31 29 26 23 20 17 15 14 16 18 17 15 13 14 18 22 24 25 24 21 19 18 17
0 0 0 0 0 1 3 3 3 2 3 3 3 4 4 6 10 16 18 19 20 22 25 27 27 26 25 25 23 20 18 16 13 11 12 14 14 12 10 12 17 21 24 26 25 23 20 19 17
0 0 0 0 0 1 2 3 3 4 5 6 6 5 4 4 8 12 13 13 15 17 19 20 21 20 19 19 18 17 17 15 11 9 9 10 11 11 10 12 16 20 23 24 24 22 21 20 19
0 0 0 0 0 0 1 2 3 5 6 7 6 5 3 3 6 9 10 11 14 15 15 16 17 17 15 14 14 14 13 11 9 8 9 10 11 11 12 14 15 18 20 20 19 20 21 21 19
0 0 0 0 0 0 0 1 3 4 6 7 6 4 1 2 4 7 10 13 14 14 15 15 16 16 14 12 10 11 10 8 8 10 12 12 11 12 14 14 14 15 16 16 16 18 20 20 18
0 0 0 0 0 0 0 1 2 4 5 5 4 2 1 1 3 6 11 15 16 15 15 15 15 14 13 11 10 9 9 8 11 16 16 13 10 10 12 13 13 14 15 16 16 16 16 16 15
0 0 0 0 0 0 0 1 2 2 3 3 3 1 0 1 2 5 10 15 18 18 16 14 14 13 13 11 11 11 11 11 14 16 15 11 8 8 10 11 12 12 13 15 15 14 13 13 14
0 0 0 0 0 0 0 0 1 1 1 2 2 1 1 1 2 3 8 13 17 17 15 14 13 13 13 13 13 13 12 12 12 12 11 9 7 7 8 9 9 10 11 12 13 12 12 12 13
0 0 0 0 0 0 0 0 0 0 0 1 1 0 1 2 2 2 5 10 13 14 14 13 14 14 13 13 13 12 11 10 10 10 9 7 7 6 6 7 8 8 8 10 11 11 11 12 12
0 0 0 0 0 0 0 0 1 0 0 0 0 0 1 2 3 3 4 6 9 11 10 10 12 13 12 10 10 8 8 9 10 9 8 7 7 6 6 7 8 7 7 8 9 9 10 11 11
0 0 0 0 0 0 0 0 0 0 0 0 0 1 2 3 4 4 3 4 6 7 6 6 7 9 9 7 7 7 6 8 9 9 8 7 7 8 8 8 8 7 6 6 7 7 7 8 7
0 0 0 0 0 0 0 0 0 0 0 0 0 1 2 4 4 2 2 3 4 4 4 4 5 6 6 6 6 6 5 6 8 9 8 7 8 8 8 8 7 6 5 5 5 5 5 5 5

GEFSSGP_con_probscp_240.txt.gz
Probability
0 0 0 0 0 0 0 0 0 1 2 3 5 7 7 6 7 8 9 14 20 20 15 16 20 22 20 19 16 12 9 8 7 6 5 4 3 4 5 6 6 6 6 6 4 3 1 0 1
0 0 0 0 0 0 0 1 1 2 3 3 5 6 6 6 7 10 12 17 23 23 19 19 23 23 21 20 17 13 11 9 7 6 5 4 3 4 5 6 6 7 7 6 5 4 3 1 1
0 0 0 0 0 0 1 2 3 4 4 4 5 5 5 6 9 12 15 20 26 26 23 24 27 26 24 21 18 14 13 11 8 7 6 5 5 5 6 7 7 7 8 8 7 8 7 5 3
0 0 0 0 0 1 2 4 4 3 3 5 6 6 7 9 11 14 15 19 25 26 25 28 29 29 26 22 18 16 15 13 11 9 7 7 8 8 9 8 8 8 8 8 8 10 11 8 5
0 0 0 0 1 2 4 5 4 4 4 5 7 8 11 13 14 14 15 17 19 22 26 30 30 29 27 24 21 20 18 16 14 13 11 10 9 9 9 9 9 9 8 8 8 10 11 9 7
0 0 0 0 1 3 4 4 5 5 6 7 9 11 13 14 14 13 14 14 15 21 27 28 28 26 25 25 25 25 22 18 16 15 14 12 10 8 8 9 10 10 10 9 9 11 11 8 7
0 0 0 0 1 3 3 4 4 5 6 8 9 11 11 12 14 14 13 11 13 21 26 25 22 22 24 25 26 27 24 20 16 14 14 13 11 8 7 8 10 11 11 10 11 12 11 8 7
0 0 0 0 2 3 4 4 4 4 6 7 8 11 13 15 15 16 14 12 13 20 25 25 22 22 23 24 26 28 26 22 17 14 13 12 10 8 7 8 10 12 11 10 10 11 10 8 8
0 0 0 0 1 2 3 3 3 5 7 9 12 15 19 20 20 19 17 15 14 19 24 25 24 23 23 25 28 28 26 22 18 15 14 12 10 8 7 9 12 14 13 11 11 11 10 8 7
0 0 0 0 1 2 2 2 3 5 8 12 18 20 21 23 23 22 20 18 17 19 21 23 25 24 23 28 31 28 25 23 20 17 17 15 13 11 11 12 14 15 14 13 12 12 11 9 8
0 0 0 0 1 2 2 2 3 4 8 14 19 21 21 21 21 19 19 18 18 20 22 25 29 29 28 31 34 31 27 26 23 22 22 19 17 17 19 18 16 15 15 15 15 14 12 11 10
0 0 0 0 1 2 3 3 3 4 7 12 16 18 20 20 18 16 17 19 20 23 28 33 37 38 36 35 34 32 30 28 26 26 26 24 21 22 23 22 19 16 16 17 18 16 13 11 10
0 0 0 1 1 3 3 3 3 5 7 10 12 15 19 20 19 19 21 23 26 30 37 40 43 45 44 39 36 33 32 31 30 30 28 24 22 21 21 22 20 18 17 18 21 19 15 12 11
0 0 0 1 2 2 2 2 3 5 6 8 10 13 16 18 20 24 27 29 34 39 42 42 43 46 46 42 39 37 35 34 33 31 26 21 19 19 19 20 20 18 16 18 20 20 19 16 14
0 0 0 1 1 1 1 2 3 5 6 7 10 13 16 17 20 25 29 34 41 44 44 42 41 44 46 43 42 40 36 33 32 30 26 21 18 18 19 18 18 17 17 19 20 20 19 17 13
0 0 0 0 0 0 0 1 4 6 7 8 11 14 18 20 19 21 27 36 44 47 46 43 41 43 46 45 44 40 33 29 29 29 27 24 20 19 19 17 17 19 19 19 19 18 18 15 11
0 0 0 0 0 0 1 2 5 7 8 9 11 14 18 20 19 20 26 36 43 46 48 46 44 45 46 47 45 39 33 28 28 27 26 25 22 19 18 17 18 21 20 17 14 15 16 14 12
0 0 0 0 1 1 2 2 5 7 8 9 9 11 15 18 19 21 27 34 40 44 47 46 45 46 47 47 46 41 34 29 26 23 23 22 20 18 16 16 17 20 19 14 12 13 14 14 15
0 0 0 0 1 2 2 2 5 6 6 6 8 10 13 16 20 23 26 30 35 41 45 45 46 47 47 46 46 42 35 29 24 20 18 19 19 18 17 16 18 19 16 15 15 14 13 13 14
0 0 0 0 1 2 2 3 6 6 4 5 9 12 13 15 19 23 24 25 30 37 41 43 45 47 47 46 44 41 35 28 21 17 16 17 18 18 17 18 19 19 16 15 16 15 12 11 11
0 0 0 0 0 1 1 3 6 8 6 5 9 13 14 13 17 20 22 24 28 34 38 41 44 45 45 44 42 38 32 24 19 16 15 16 16 16 16 18 18 17 15 14 14 14 12 11 10
0 0 0 0 0 0 1 2 6 9 8 7 8 11 11 11 12 15 18 22 26 30 35 40 42 43 41 40 37 34 27 21 18 17 16 16 16 16 16 17 17 15 13 11 11 12 12 11 11
0 0 0 0 0 0 0 1 5 8 10 9 8 8 9 10 10 13 16 19 21 26 32 38 41 40 38 35 33 30 24 20 18 17 16 17 18 17 16 17 16 14 11 10 11 11 11 10 10
0 0 0 0 0 0 0 1 5 9 10 9 8 9 10 11 11 12 15 17 19 22 28 34 38 39 37 33 30 27 23 19 18 16 16 18 19 17 14 14 14 13 11 11 12 11 10 10 10
0 0 0 0 0 0 0 2 5 8 8 7 7 9 11 12 11 11 14 17 17 19 24 29 33 36 35 31 27 24 22 19 18 18 17 17 17 15 12 11 12 11 10 11 13 12 11 10 10
0 0 0 0 0 1 1 3 5 5 5 5 5 7 8 9 10 11 14 16 16 18 22 27 29 30 29 28 24 22 21 19 18 18 18 16 14 12 9 9 10 10 10 11 13 12 11 10 10
0 0 0 0 0 1 2 4 5 4 3 4 5 5 5 6 8 11 13 15 15 17 23 27 27 26 25 25 23 21 20 20 19 17 16 13 12 11 9 9 10 11 11 12 12 12 12 11 10
0 0 0 0 0 1 2 4 6 5 4 5 6 6 5 4 7 10 11 13 13 14 19 23 24 22 22 22 21 20 20 19 18 16 14 12 12 11 11 11 11 11 11 11 11 10 10 10 8
0 0 0 0 0 1 1 3 4 4 4 4 6 6 5 5 6 8 9 11 11 11 12 16 19 19 18 17 17 19 20 19 18 17 15 13 12 12 12 11 11 10 9 8 7 6 5 5 4
0 0 0 0 0 1 1 2 4 4 4 4 6 6 5 5 5 6 7 9 10 9 11 13 16 17 16 14 15 20 21 19 18 17 16 14 12 12 12 11 9 8 7 6 5 3 2 1 1

GEFSSGP_con_probscp_246.txt.gz
Probability
0 0 0 0 0 0 0 0 0 0 0 1 4 8 7 3 1 1 1 1 3 6 8 12 19 22 21 19 16 13 9 5 4 5 7 9 9 8 9 11 11 9 5 2 2 1 1 2 2
0 0 0 0 0 0 0 0 0 0 0 1 4 8 7 4 2 2 3 4 7 10 11 14 18 22 21 17 14 12 9 6 5 6 7 8 10 10 10 12 11 9 6 3 2 2 1 1 1
0 0 0 0 0 0 0 0 0 0 0 1 4 7 6 3 3 3 6 9 12 13 13 14 17 20 20 17 15 14 13 11 9 8 7 8 9 9 10 10 9 8 7 5 3 2 1 1 0
0 0 0 0 0 0 0 0 0 0 1 3 6 8 6 3 3 7 11 13 14 14 14 16 19 21 21 20 17 16 16 15 14 13 12 9 7 8 8 8 7 7 7 5 4 3 2 1 1
0 0 0 0 0 0 0 0 1 1 3 7 12 13 10 5 6 11 15 14 13 14 15 18 23 24 23 22 20 17 17 18 18 18 16 10 7 7 8 7 6 6 6 5 3 2 1 1 0
0 0 0 0 0 0 0 0 1 2 6 11 16 18 14 11 12 15 16 15 13 14 16 20 24 24 23 24 23 21 20 20 19 19 16 10 6 6 7 7 6 6 5 4 3 1 1 0 1
0 0 0 0 0 0 0 0 0 2 6 10 14 16 15 16 20 22 21 19 16 16 18 21 22 21 22 23 24 25 25 24 21 17 14 10 6 4 5 6 6 6 6 6 5 3 2 2 2
0 0 0 0 0 0 0 0 0 2 6 9 10 10 13 20 27 28 26 21 18 19 21 23 22 20 18 19 20 24 26 25 21 17 13 10 6 4 4 6 6 7 7 8 7 5 4 4 3
0 0 0 0 0 1 1 1 0 2 6 8 9 9 15 25 30 30 25 20 18 20 22 23 23 19 16 15 16 20 21 21 19 15 12 9 6 4 4 5 6 6 6 6 6 5 5 5 4
0 0 0 0 1 1 2 2 1 2 4 7 9 13 21 26 28 25 22 19 18 20 21 21 21 18 15 14 14 17 17 17 16 14 11 9 6 4 5 5 5 5 4 4 4 4 4 4 4
0 0 0 1 2 2 3 3 2 3 4 6 10 16 22 24 23 21 20 19 20 20 18 17 16 14 12 12 15 17 16 14 12 13 12 10 7 5 5 5 6 6 5 4 4 4 4 4 5
0 0 1 1 2 3 3 3 4 5 6 6 10 16 21 22 20 20 20 20 21 20 17 14 12 10 9 11 14 15 14 10 9 12 13 11 8 6 5 6 7 7 5 4 4 4 5 5 6
0 1 1 1 1 2 3 3 3 6 7 8 11 16 20 21 22 21 21 23 24 21 17 13 12 11 10 11 12 11 8 6 7 10 12 11 9 8 7 8 9 6 4 3 4 4 4 4 5
1 2 2 1 0 1 2 1 1 3 7 10 13 16 18 19 21 21 23 25 25 21 15 13 14 13 13 12 9 7 5 4 5 8 9 9 9 8 8 9 10 7 3 3 4 3 3 3 3
2 2 1 0 0 0 0 0 0 2 6 10 13 15 15 15 16 19 21 22 20 16 13 13 14 14 13 11 8 6 5 5 5 6 7 7 6 5 6 7 8 7 6 5 5 4 2 1 1
1 1 0 0 0 0 0 0 1 4 7 9 10 11 11 11 12 15 17 16 13 11 10 11 13 14 14 11 8 7 7 6 7 7 7 6 5 4 3 4 5 5 6 6 5 5 3 1 0
0 0 0 0 0 1 1 1 2 5 8 10 9 8 8 8 8 10 12 12 10 8 8 9 12 14 14 11 9 9 8 6 6 7 7 6 5 4 4 4 4 4 4 4 5 5 4 1 0
0 0 0 0 1 2 2 2 2 5 9 10 8 6 5 5 5 6 8 9 9 8 8 9 11 13 13 12 10 10 8 6 5 6 6 6 5 4 5 5 4 3 3 4 4 4 3 1 1
0 0 0 1 2 3 2 1 1 4 8 8 6 4 4 4 4 4 5 7 9 9 9 10 11 13 13 12 10 9 8 7 6 5 6 6 5 5 5 4 3 3 4 4 4 3 1 1 2
0 0 0 2 3 2 1 1 3 5 7 6 5 5 4 3 2 3 4 6 8 8 9 11 13 13 13 12 10 9 8 8 5 3 3 5 5 4 4 3 3 3 3 3 2 1 0 1 2
0 0 0 1 2 1 1 1 3 5 6 6 6 6 5 3 3 4 6 7 8 9 9 11 12 13 12 11 10 9 8 6 3 1 1 3 3 3 4 5 5 4 4 4 2 1 0 0 1
0 0 0 1 1 1 0 1 2 4 6 7 7 6 6 5 6 9 10 9 9 9 9 10 12 13 12 11 10 10 8 4 1 0 0 1 1 2 5 7 7 5 5 5 4 2 1 0 0
0 0 0 0 0 0 0 1 2 3 4 6 6 6 7 7 9 12 12 10 10 10 9 10 12 13 12 10 10 11 9 5 3 1 0 0 1 2 4 5 6 5 6 6 5 3 2 1 0
0 0 0 0 0 0 0 1 2 3 3 4 5 6 7 7 9 11 11 11 11 10 9 10 12 11 11 10 9 9 8 6 5 3 1 0 1 1 2 3 4 4 4 5 4 3 3 2 1
0 0 0 0 0 0 0 0 1 3 3 3 4 6 7 7 7 8 8 9 9 9 9 10 10 10 9 9 7 7 7 6 5 3 1 0 0 0 1 1 2 3 3 4 3 3 2 2 1
0 0 0 0 0 0 0 1 1 3 3 3 4 7 7 6 6 6 5 5 6 7 7 8 9 9 8 6 5 5 5 4 2 1 1 0 0 0 0 0 1 1 2 2 3 3 2 1 0
0 0 0 0 0 0 0 1 2 3 3 4 5 7 8 6 5 5 4 4 4 5 6 6 6 7 6 4 3 3 2 2 1 0 0 0 0 0 0 0 0 0 1 1 1 2 2 1 0
0 0 0 0 0 0 0 1 3 3 3 4 5 7 8 6 5 4 2 3 3 5 6 5 4 5 4 2 2 1 1 1 0 0 0 0 0 0 0 0 0 0 0 0 0 1 1 0 0
0 0 0 0 0 0 0 1 2 3 3 3 4 6 7 5 3 2 1 1 2 4 5 4 3 3 3 1 0 0 0 1 0 0 0 0 0 0 0 0 0 0 0 0 0 0 0 0 0
0 0 0 0 0 0 0 0 1 3 3 3 4 4 5 4 3 1 0 0 1 3 3 3 3 3 2 1 0 0 1 1 1 0 0 0 0 0 0 0 0 0 0 0 0 0 0 0 0

GEFSSGP_con_probscp_252.txt.gz
Probability
0 0 0 0 0 0 0 0 0 0 0 0 1 1 0 0 1 1 1 4 11 13 14 19 22 22 24 24 22 22 23 19 12 9 10 8 4 1 0 0 0 0 1 1 1 1 1 1 1
0 0 0 0 0 0 0 0 0 0 0 0 1 2 1 1 2 2 1 5 11 14 15 19 23 23 24 26 26 25 25 22 15 11 9 7 4 2 1 0 0 0 1 1 1 1 2 2 2
0 0 0 0 0 0 0 0 0 0 0 0 1 2 1 1 2 3 4 8 13 13 12 16 22 24 24 27 28 27 27 26 21 15 11 9 6 4 2 1 0 0 1 2 2 2 2 1 1
0 0 0 0 0 0 0 0 0 0 0 0 1 2 2 2 3 4 8 13 17 15 12 14 21 24 25 26 27 26 28 28 26 22 18 15 11 7 4 2 1 1 2 2 2 3 3 2 1
0 0 0 0 0 0 0 0 0 0 0 1 2 3 3 4 6 10 13 17 20 20 16 17 22 25 26 27 27 26 27 29 29 26 24 21 17 12 8 5 3 3 3 2 2 2 3 3 1
0 0 0 0 0 0 0 0 0 0 1 2 4 4 4 7 12 16 17 19 22 22 20 20 23 25 27 27 27 26 27 29 29 26 24 23 20 17 13 9 6 4 4 3 3 3 3 2 1
0 0 0 0 0 0 0 0 0 1 2 3 4 4 4 9 15 19 20 21 22 21 20 20 22 24 27 28 28 27 26 28 27 24 21 20 19 17 16 13 9 7 6 5 4 3 4 4 3
0 0 0 0 0 0 0 0 0 1 2 2 2 3 5 11 18 20 22 23 22 20 18 19 21 23 26 28 29 27 26 26 25 22 20 18 16 14 14 13 11 10 7 5 3 4 5 5 5
0 0 0 0 0 0 0 0 0 1 2 2 3 7 14 20 23 23 23 23 22 19 17 18 20 23 25 28 28 26 23 23 22 21 20 18 15 12 11 11 10 9 7 5 4 4 5 6 6
0 0 0 0 0 0 1 1 1 2 3 4 8 15 24 28 28 25 23 22 22 21 18 17 19 22 23 25 25 23 20 18 19 19 18 17 14 11 10 10 9 7 6 5 3 3 3 5 6
0 0 0 1 1 1 2 3 3 4 4 5 11 20 27 29 27 24 21 19 19 20 19 18 19 20 20 21 23 21 17 16 17 17 16 14 12 11 11 11 9 7 5 4 3 2 2 3 5
0 0 1 1 2 2 3 4 5 5 5 8 14 21 26 27 25 23 21 17 16 17 16 16 17 17 16 18 19 18 15 14 14 14 13 12 11 11 12 14 11 8 6 4 4 4 3 2 3
1 1 1 1 1 2 3 4 5 6 7 11 17 22 24 24 23 24 22 17 14 14 13 12 13 13 13 14 15 14 13 12 12 11 10 9 9 9 11 12 10 8 6 5 5 6 4 2 2
0 0 0 0 0 1 3 4 4 5 8 12 16 19 20 19 20 23 22 19 16 14 12 10 9 8 9 11 12 12 11 10 9 9 8 7 6 6 7 7 6 5 4 4 4 4 3 1 1
0 0 0 0 0 0 2 4 4 5 8 11 12 13 13 14 16 20 21 20 17 15 12 9 7 5 5 8 10 10 9 7 6 5 5 4 4 4 4 4 3 3 3 3 3 3 3 2 1
0 0 0 0 0 0 1 3 4 5 7 8 9 10 10 11 13 16 18 18 17 15 11 8 6 5 3 4 6 7 6 4 3 2 2 3 3 3 4 3 3 3 3 3 3 3 3 3 3
0 0 0 0 0 0 1 2 3 5 6 5 6 8 10 9 10 12 13 14 13 11 8 5 4 3 1 1 3 4 3 2 1 1 2 4 4 4 4 4 3 3 3 3 3 3 3 3 3
0 0 0 0 0 0 0 1 2 4 5 5 5 7 9 10 9 9 10 11 11 9 5 2 1 1 1 2 3 3 2 1 0 0 2 3 4 4 4 3 3 3 3 3 3 3 3 3 3
0 0 0 0 0 0 0 1 2 4 5 5 6 6 8 9 8 7 7 9 10 9 5 2 1 1 2 3 4 3 2 0 0 1 1 1 2 3 3 3 3 3 3 3 3 3 4 4 3
0 0 0 0 0 0 0 1 3 3 4 6 6 6 6 7 7 5 4 6 8 8 6 4 3 4 5 5 7 6 4 2 1 1 0 0 1 1 2 3 3 3 3 3 3 4 4 4 2
0 0 0 0 0 0 0 2 3 3 4 5 4 5 6 6 6 5 3 3 4 4 4 5 6 8 9 9 10 11 9 6 4 2 0 0 1 1 1 2 3 3 3 3 3 3 3 2 1
0 0 0 0 0 0 0 1 2 3 4 4 4 5 6 6 5 4 2 2 2 2 3 6 8 10 11 12 13 13 12 10 6 3 1 1 2 2 1 1 1 2 3 3 3 3 1 1 0
0 0 0 0 0 0 0 0 1 3 4 4 5 6 6 6 4 2 1 1 1 1 3 7 9 10 12 13 13 13 13 10 6 3 3 3 3 2 1 0 0 1 1 2 3 3 1 0 0
0 0 0 0 0 0 0 0 1 2 3 4 4 5 6 5 3 1 0 0 0 1 4 7 9 9 10 11 12 12 12 8 4 3 2 2 2 2 1 0 0 0 0 1 2 2 1 0 0
0 0 0 0 0 0 0 0 1 2 3 3 3 4 5 5 3 2 1 0 0 1 4 7 8 7 8 9 9 9 8 5 3 1 1 1 1 1 0 0 0 0 0 0 1 1 1 1 1
0 0 0 0 0 0 0 0 1 1 3 3 3 3 4 4 2 2 2 1 1 2 4 6 7 6 7 7 6 5 4 2 1 0 0 0 0 0 0 0 0 0 0 0 0 0 0 1 2
0 0 0 0 0 0 0 0 1 1 2 3 3 3 3 2 1 1 2 1 1 3 4 5 6 6 6 5 4 3 2 1 0 0 0 0 0 0 0 0 1 0 0 0 0 0 0 1 1
0 0 0 0 0 0 0 0 0 1 2 3 3 3 3 1 0 1 2 1 1 2 3 4 4 5 5 4 3 3 2 1 0 0 0 0 0 0 0 0 0 0 0 0 0 0 0 0 0
0 0 0 0 0 0 0 0 0 1 2 3 3 3 2 1 1 1 2 1 0 1 2 3 3 4 4 3 3 3 2 1 0 0 0 0 0 0 0 0 0 0 0 0 0 0 0 0 0
0 0 0 0 0 0 0 0 0 1 2 3 3 3 2 1 2 2 2 1 0 1 2 3 3 3 3 3 3 3 2 1 0 0 0 0 0 0 0 0 0 0 0 0 0 0 0 0 0